Flag for Canada Weather past 2 weeks in Fort Nelson, British Columbia, Canada

Now
59 °F

Broken clouds.


Feels Like: 59 °F
Forecast: 54 / 77 °F
Wind: 2 mph from North

Location: Fort Nelson

Current Time: Jul 22, 2014 at 10:29:54 PM

Latest Report: Jul 22, 2014 at 10:00 PM


Visibility: 30 mi

Pressure: 30.01 "Hg

Humidity: 94%

Dew point: 57 °F

Location of Fort NelsonLocation

Historic Weather in Fort Nelson — Graph

°F

Fort Nelson temperature yesterday

Maximum temperature yesterday: 79 °F (at 5:00 PM)
Minimum temperature yesterday: 54 °F (at 4:00 AM)
Average temperature yesterday: 63 °F

Past Weeks' High & Low Weather Summary

 TemperatureHumidityPressure
High90 °F (Jul 12, 5:00 PM)100% (Jul 11, 2:00 AM)30.09 "Hg (Jul 11, 2:00 AM)
Low48 °F (Jul 20, 5:04 AM)28% (Jul 16, 4:00 PM)29.50 "Hg (Jul 18, 10:00 PM)
Average66 °F70%29.87 "Hg
* Reported Jul 7 9:00 PM — Jul 22 9:00 PM, Fort Nelson, Weather by CustomWeather, © 2014

Note: Actual official high and low records may vary slightly from our data, if they occured in-between our weather recording intervals... More about our weather records

Advertising

Fort Nelson weather history for previous 24 hours

 ConditionsComfort  
Time TempWeatherWind HumidityBarometerVisibility
9:00 PM
Jul 22
59 °FBroken clouds.7 mph94%30.02 "Hg30 mi
8:00 PM59 °FThunderstorms. Partly sunny.8 mph94%30.05 "Hg6 mi
7:00 PM63 °FThunderstorms. Partly sunny.23 mph83%30.03 "Hg5 mi
6:00 PM70 °FThunderstorms. Partly sunny.5 mph73%29.99 "Hg10 mi
5:00 PM72 °FThunderstorms. Partly sunny.6 mph65%30.00 "Hg15 mi
4:00 PM75 °FBroken clouds.2 mph50%30.01 "Hg30 mi
9:00 AM59 °FBroken clouds.7 mph94%30.08 "Hg7 mi
8:02 AM57 °FFog.3 mph94%30.07 "Hg3 mi
7:46 AM55 °FFog.3 mph100%30.07 "Hg1 mi
7:00 AM54 °FFog.No wind100%30.06 "Hg1 mi
6:52 AM54 °FFog.3 mph100%30.06 "Hg1 mi
6:00 AM52 °FFog.No wind100%30.05 "Hg1 mi
5:00 AM52 °FFog.No wind94%30.04 "Hg1 mi
4:00 AM54 °FPartly cloudy.2 mph94%30.02 "Hg15 mi
3:03 AM54 °FFog.3 mph100%30.01 "Hg1 mi
2:54 AM54 °FFog.5 mph100%30.01 "Hg3 mi
2:00 AM55 °FPartly cloudy.2 mph94%30.01 "Hg15 mi
1:00 AM57 °FPartly cloudy.5 mph94%29.99 "Hg15 mi
12:00 AM59 °FThunderstorms. Passing clouds.5 mph88%29.98 "Hg15 mi
11:00 PM
Jul 21
59 °FThunderstorms. Mostly cloudy.6 mph82%29.98 "Hg10 mi
10:45 PM59 °FThunderstorms. Partly sunny.6 mph88%29.99 "Hg10 mi
10:00 PM61 °FScattered showers. Partly sunny.6 mph77%29.96 "Hg20 mi
Weather by CustomWeather, © 2014

See weather overviewHow to use our weather pages